Location: Zagreb
(45.8000°N, 16.0000°E)
Time: 08:54:55
(UTC+02:00)

Courier 1B Rocket - Pass Details

Date: 12 August 2022
Orbit: 920 x 1202 km, 28.2° (Epoch: 25 September)

Event Time Altitude Azimuth Distance (km) Brightness Sun altitude
Rises 21:09:07 0° 245° (WSW) 3,639 8.5 -10.0°
Reaches altitude 10° 21:14:44 10° 206° (SSW) 2,765 7.3 -10.9°
Maximum altitude 21:15:43 10° 197° (SSW) 2,754 7.2 -11.0°
Drops below altitude 10° 21:16:43 10° 189° (S) 2,794 7.1 -11.1°
Enters shadow 21:19:55 - 165° (SSE) 3,221 7.3 -11.6°
Sets 21:22:38 0° 151° (SSE) 3,837 - -12.0°
